Location: Unspecified
(0.0000°N, 0.0000°E)
Time: 19:53:45
(UTC+00:00)

Envisat - Visible Passes

Search period start: 26 June 2019 00:00
Search period end: 06 July 2019 00:00
Orbit: 764 x 766 km, 98.1° (Epoch: 26 June)

Date Brightness Start Highest point End Pass type
(mag) Time Alt. Az. Time Alt. Az. Time Alt. Az.
26 Jun 3.5 19:04:17 10° S 19:09:17 60° WSW 19:14:16 10° NNW visible
27 Jun 3.3 18:27:45 10° SSE 18:32:37 47° ENE 18:37:27 10° N visible
28 Jun 4.8 19:30:24 10° SSW 19:34:43 28° WSW 19:39:02 10° NW visible
29 Jun 3.1 18:52:59 10° S 18:58:04 82° WSW 19:03:08 10° NNW visible
30 Jun 5.7 19:57:41 10° SW 20:00:09 14° WSW 20:02:35 10° WNW visible
01 Jul 4.3 19:18:49 10° S 19:23:31 38° WSW 19:28:12 10° NW visible
02 Jul 3.0 18:41:47 10° SSE 18:46:52 73° ENE 18:51:54 10° N visible
03 Jul 5.5 19:45:28 10° SW 19:48:56 19° WSW 19:52:25 10° WNW visible
04 Jul 3.8 19:07:22 10° S 19:12:18 53° WSW 19:17:13 10° NNW visible
05 Jul 3.2 18:30:42 10° SSE 18:35:39 53° ENE 18:40:33 10° N visible
